Hourly Data Report for February 06, 2019

TORONTO INTL A
ONTARIO
Current Station Operator: NAVCAN

43°40'36.000" N
79°37'50.000" W
173.40 m
6158731
71624
YYZ

Download Data

Hourly Data (February 2019)
Hourly Data Report for February 6, 2019
TIME
LST
Temp Definition
°C
Dew Point Definition
°C
Rel Hum Definition
%
Precip. Amount Definition
mm

Wind Dir Definition
10's deg

Wind Spd Definition
km/h
Visibility Definition
km
Stn Press Definition
kPa
Hmdx Definition


Wind Chill Definition


Weather Definition


00:00 -6.9 -10.9 73   1 14 24.1 100.30   -13 LegendNANA
01:00 -6.7 -10.7 73   6 7 24.1 100.23   -10 Mostly Cloudy
02:00 -6.0 -10.3 72   6 11 24.1 100.15   -11 LegendNANA
03:00 -5.5 -9.8 72   4 9 24.1 100.17   -10 LegendNANA
04:00 -4.5 -8.5 74   6 13 24.1 99.99   -10 Cloudy
05:00 -3.8 -7.2 77   9 29 24.1 99.87   -11 LegendNANA
06:00 -3.8 -6.8 79   9 20 19.3 99.98   -10 Snow
07:00 -4.1 -6.8 82   8 18 16.1 99.99   -10 Freezing Rain,Snow Pellets
08:00 -4.8 -7.2 83   8 17 1.6 99.70   -11 Ice Pellets
09:00 -4.6 -6.8 85   9 15 1.6 99.70   -10 Snow,Ice Pellets
10:00 -4.2 -6.2 86   9 16 2.4 99.63   -10 Ice Pellets
11:00 -3.2 -5.1 87   9 17 1.6 99.55   -9 Ice Pellets
12:00 -2.4 -4.3 87   9 13 2.4 99.48   -7 Freezing Rain,Ice Pellets
13:00 -2.0 -3.8 88   8 17 3.2 99.37   -7 Freezing Rain,Ice Pellets
14:00 -1.1 -2.8 89   10 17 4.0 99.23   -6 Freezing Rain,Ice Pellets
15:00 -1.2 -2.8 89   9 18 12.9 99.21   -6 LegendNANA
16:00 -1.3 -2.8 89   6 11 9.7 99.27   -5 Freezing Rain
17:00 -1.9 -3.3 90   6 12 12.9 99.26   -6 LegendNANA
18:00 -2.1 -3.5 90   7 12 9.7 99.30   -6 Fog
19:00 -2.1 -3.4 91   2 10 9.7 99.37   -6 Fog
20:00 -1.9 -3.2 91   36 11 8.1 99.46   -6 Freezing Drizzle, Fog
21:00 -2.3 -3.6 91   35 19 9.7 99.52   -8 Freezing Drizzle, Fog
22:00 -2.3 -3.6 91   1 10 16.1 99.55   -6 Cloudy
23:00 -2.3 -3.7 90   1 11 16.1 99.61   -6 LegendNANA

Notes on Data Quality.

Legend

  • E = Estimated
  • M = Missing
  • NA = Not Available*
  • [empty] = Indicates an unobserved value
Date modified: